Weather Roundup
Issued by NWS Springfield, MO

Home | Current Version | Previous Version | Text Only | Print | Product List | Glossary On
Versions: 1 2 3 4 5 6 7 8 9 10 11 12 13 14 15 16 17 18 19 20 21 22 23 24 25 26 27 28 29 30 31 32 33 34 35 36 37 38 39 40 41 42 43 44 45 46 47 48 49 50
000
NZUS99 KSGF 232259
HRRSGF

HOURLY WEATHER
NATIONAL WEATHER SERVICE SPRINGFIELD MO
600 PM CDT WED APR 23 2014

......SGF CWA......

CITY           SKY/WX    TMP DP  RH WIND       PRES   REMARKS
SPRINGFIELD    SUNNY     76  41  28 SE17      29.84F
JOPLIN         SUNNY     79  48  33 S15G23    29.80F
WEST PLAINS    SUNNY     73  36  25 SE8       29.93F
ROLLA          MOSUNNY   67  40  37 NE13      29.89F
OSAGE BEACH    SUNNY     75  34  22 SE10      29.88F
BRANSON        MOSUNNY   75  41  29 SE14      29.89S

......SURROUNDING SGF CWA......

CITY           SKY/WX    TMP DP  RH WIND       PRES   REMARKS
CHANUTE        SUNNY     80  49  33 S18       29.75F
PARSONS        SUNNY     81  50  33 S12G22    29.76F
COFFEYVILLE    SUNNY     81  54  39 S21       29.75F
EMPORIA        MOSUNNY   79  48  33 SE23G32   29.67F
SILOAM SPRINGS SUNNY     79  52  38 SE18      29.84F
HARRISON AR    SUNNY     76  42  29 SE12G21   29.88F
NEAR YELLVILLE SUNNY     77  41  27 SE7       29.90S

......KANSAS AND MISSOURI......

CITY           SKY/WX    TMP DP  RH WIND       PRES   REMARKS
KANSAS CTY INT PTSUNNY   71  43  36 SE21G31   29.75F
DOWNTOWN KC    MOSUNNY   75  43  31 SE14G24   29.75F
COLUMBIA       PTSUNNY   64  39  39 E14       29.91F
SEDALIA        MOSUNNY   72  41  32 SE14      29.86F
ST JOSEPH      CLOUDY    71  42  35 SE20G30   29.72F
ST LOUIS       CLOUDY    63  34  33 E14       29.99F
SPIRIT OF STL  CLOUDY    62  34  35 E12       29.96F
KIRKSVILLE     CLOUDY    60  38  43 SE21G29   29.91F
WICHITA        CLOUDY    82  44  26 S23G30    29.63F
TOPEKA         PTSUNNY   80  46  30 S22G29    29.67F
OLATHE         MOSUNNY   73  46  38 SE16G26   29.75F

......TENNESSEE......

CITY           SKY/WX    TMP DP  RH WIND       PRES   REMARKS
MEMPHIS        MOSUNNY   77  35  21 E5        29.93S
NASHVILLE      MOSUNNY   68  33  27 N12       29.99S

......ARKANSAS.......

CITY           SKY/WX    TMP DP  RH WIND       PRES   REMARKS
FAYETTEVILLE   SUNNY     76  50  40 S9G22     29.85F
FT SMITH       MOSUNNY   83  53  35 SE14      29.81F
LITTLE ROCK    MOSUNNY   77  43  29 SE10      29.91S

......OKLAHOMA.......

CITY           SKY/WX    TMP DP  RH WIND       PRES   REMARKS
TULSA          MOSUNNY   83  56  39 S18G28    29.73F
PONCA CITY     PTSUNNY   86  46  24 S17G29    29.67F
MCALESTER      MOSUNNY   83  56  39 S12G22    29.78F
OKLAHOMA CITY  PTSUNNY   81  53  37 S21G31    29.70F

......IOWA............

CITY           SKY/WX    TMP DP  RH WIND       PRES   REMARKS
DES MOINES     CLOUDY    49  39  68 E15G30    29.86F
QUAD CITIES    LGT RAIN  50  39  66 E10       30.01F

......ILLINOIS........

CITY           SKY/WX    TMP DP  RH WIND       PRES   REMARKS
QUINCY         CLOUDY    60  33  36 SE15      29.98F
CHICAGO        CLOUDY    46  20  35 NE6       30.12S



USA.gov is the U.S. government's official web portal to all federal, state and local government web resources and services.